| time (UTC) | temp F | wind direction | speed knots | gust knots | rain 1hr in | rain 24hr in | rain mn in | humidity % | barometer mb |
| 20260507041023 | 64 | 147 | 0.9 | 2.6 | 0.00 | 0.00 | 0.00 | 75 | 1016.3 |
| 20260507040025 | 64 | 134 | 2.6 | 3.5 | 0.00 | 0.00 | 0.00 | 74 | 1016.0 |
| 20260507035029 | 64 | 141 | 2.6 | 3.5 | 0.00 | 0.00 | 0.00 | 73 | 1016.0 |
| 20260507034019 | 65 | 162 | 2.6 | 4.3 | 0.00 | 0.00 | 0.00 | 72 | 1016.0 |
| 20260507033022 | 66 | 157 | 2.6 | 3.5 | 0.00 | 0.00 | 0.00 | 71 | 1015.9 |
| 20260507032026 | 66 | 238 | 0.9 | 3.5 | 0.00 | 0.00 | 0.00 | 69 | 1015.7 |
| 20260507031031 | 67 | 177 | 2.6 | 3.5 | 0.00 | 0.00 | 0.00 | 68 | 1015.5 |
| 20260507030021 | 68 | 188 | 1.7 | 4.3 | 0.00 | 0.00 | 0.00 | 66 | 1015.2 |
| 20260507025023 | 69 | 187 | 2.6 | 3.5 | 0.00 | 0.00 | 0.00 | 64 | 1015.2 |
| 20260507024028 | 70 | 211 | 0.9 | 2.6 | 0.00 | 0.00 | 0.00 | 62 | 1015.1 |
| 20260507023018 | 71 | 185 | 2.6 | 4.3 | 0.00 | 0.00 | 0.00 | 60 | 1015.0 |
| 20260507022144 | 73 | 215 | 2.6 | 5.2 | 0.00 | 0.00 | 0.00 | 59 | 1015.0 |
| 20260507021025 | 74 | 176 | 3.5 | 4.3 | 0.00 | 0.00 | 0.00 | 58 | 1014.8 |
| 20260507020030 | 75 | 211 | 2.6 | 5.2 | 0.00 | 0.00 | 0.00 | 56 | 1014.8 |
| 20260507015020 | 77 | 183 | 2.6 | 5.2 | 0.00 | 0.00 | 0.00 | 54 | 1014.8 |
| 20260507014042 | 77 | 238 | 3.5 | 5.2 | 0.00 | 0.00 | 0.00 | 54 | 1014.7 |
| 20260507013026 | 79 | 223 | 3.5 | 5.2 | 0.00 | 0.00 | 0.00 | 51 | 1014.5 |
| 20260507012026 | 79 | 215 | 4.3 | 6.1 | 0.00 | 0.00 | 0.00 | 51 | 1014.4 |
| 20260507010042 | 80 | 224 | 3.5 | 7.0 | 0.00 | 0.00 | 0.00 | 50 | 1014.2 |
| 20260507005019 | 80 | 195 | 4.3 | 7.0 | 0.00 | 0.00 | 0.00 | 50 | 1014.2 |
| 20260507004018 | 81 | 238 | 4.3 | 7.8 | 0.00 | 0.00 | 0.00 | 48 | 1014.1 |
| 20260507003037 | 83 | 243 | 4.3 | 8.7 | 0.00 | 0.00 | 0.00 | 47 | 1014.0 |
| 20260507002016 | 82 | 230 | 5.2 | 7.8 | 0.00 | 0.00 | 0.00 | 47 | 1014.0 |
| 20260507001027 | 82 | 236 | 3.5 | 6.1 | 0.00 | 0.00 | 0.00 | 47 | 1013.9 |
| 20260507000052 | 82 | 269 | 5.2 | 8.7 | 0.00 | 0.00 | 0.00 | 47 | 1013.8 |
| 20260506235022 | 83 | 282 | 4.3 | 7.0 | 0.00 | 0.00 | 0.00 | 44 | 1013.8 |
| 20260506234024 | 82 | 313 | 5.2 | 7.8 | 0.00 | 0.00 | 0.00 | 44 | 1013.8 |
| 20260506233029 | 84 | 245 | 4.3 | 6.1 | 0.00 | 0.00 | 0.00 | 43 | 1013.9 |
| 20260506232018 | 83 | 291 | 5.2 | 9.6 | 0.00 | 0.00 | 0.00 | 44 | 1013.9 |
| 20260506231024 | 82 | 258 | 6.1 | 10.4 | 0.00 | 0.00 | 0.00 | 45 | 1014.1 |
| 20260506230026 | 82 | 259 | 5.2 | 8.7 | 0.00 | 0.00 | 0.00 | 45 | 1014.2 |
| 20260506225031 | 85 | 281 | 5.2 | 8.7 | 0.00 | 0.00 | 0.00 | 42 | 1014.2 |
| 20260506224021 | 86 | 326 | 4.3 | 7.0 | 0.00 | 0.00 | 0.00 | 40 | 1014.2 |
| 20260506223023 | 86 | 208 | 2.6 | 5.2 | 0.00 | 0.00 | 0.00 | 40 | 1014.4 |
| 20260506222028 | 86 | 251 | 3.5 | 7.8 | 0.00 | 0.00 | 0.00 | 39 | 1014.5 |
| 20260506221018 | 84 | 191 | 3.5 | 6.1 | 0.00 | 0.00 | 0.00 | 41 | 1014.8 |
| 20260506220042 | 84 | 262 | 3.5 | 5.2 | 0.00 | 0.00 | 0.00 | 41 | 1015.0 |
| 20260506215024 | 80 | 256 | 4.3 | 6.1 | 0.00 | 0.00 | 0.00 | 44 | 1015.1 |
| 20260506214030 | 80 | 317 | 6.1 | 7.8 | 0.00 | 0.00 | 0.00 | 44 | 1015.2 |
| 20260506213019 | 79 | 292 | 5.2 | 6.1 | 0.00 | 0.00 | 0.00 | 45 | 1015.2 |
| 20260506212023 | 83 | 294 | 5.2 | 7.8 | 0.00 | 0.00 | 0.00 | 42 | 1015.3 |
| 20260506211023 | 84 | 264 | 2.6 | 4.3 | 0.00 | 0.00 | 0.00 | 42 | 1015.5 |
| 20260506210025 | 80 | 261 | 3.5 | 6.1 | 0.00 | 0.00 | 0.00 | 46 | 1015.7 |
| 20260506205050 | 83 | 286 | 4.3 | 7.8 | 0.00 | 0.00 | 0.00 | 43 | 1015.7 |
| 20260506204020 | 82 | 148 | 2.6 | 6.1 | 0.00 | 0.00 | 0.00 | 44 | 1015.8 |
| 20260506203019 | 80 | 304 | 4.3 | 6.1 | 0.00 | 0.00 | 0.00 | 45 | 1016.0 |
| 20260506202024 | 80 | 285 | 3.5 | 7.0 | 0.00 | 0.00 | 0.00 | 44 | 1016.1 |
| 20260506201026 | 80 | 311 | 2.6 | 4.3 | 0.00 | 0.00 | 0.00 | 45 | 1016.3 |
| 20260506200051 | 79 | 338 | 2.6 | 3.5 | 0.00 | 0.00 | 0.00 | 46 | 1016.5 |
| 20260506195019 | 76 | 280 | 4.3 | 7.0 | 0.00 | 0.00 | 0.00 | 50 | 1016.6 |
| 20260506194019 | 74 | 308 | 4.3 | 7.0 | 0.00 | 0.00 | 0.00 | 51 | 1016.6 |
| 20260506193024 | 78 | 274 | 4.3 | 7.0 | 0.00 | 0.00 | 0.00 | 47 | 1016.7 |
| 20260506192027 | 78 | 188 | 3.5 | 6.1 | 0.00 | 0.00 | 0.00 | 47 | 1016.9 |
| 20260506191031 | 79 | 152 | 1.7 | 3.5 | 0.00 | 0.00 | 0.00 | 46 | 1016.9 |
| 20260506190021 | 79 | 199 | 1.7 | 6.1 | 0.00 | 0.00 | 0.00 | 47 | 1017.1 |
| 20260506185023 | 76 | 159 | 1.7 | 4.3 | 0.00 | 0.00 | 0.00 | 50 | 1017.2 |
| 20260506184027 | 73 | 221 | 1.7 | 5.2 | 0.00 | 0.00 | 0.00 | 53 | 1017.2 |
| 20260506183032 | 72 | 306 | 4.3 | 6.1 | 0.00 | 0.00 | 0.00 | 54 | 1017.3 |
| 20260506182022 | 72 | 260 | 1.7 | 4.3 | 0.00 | 0.00 | 0.00 | 55 | 1017.5 |
| 20260506181024 | 71 | 259 | 2.6 | 3.5 | 0.00 | 0.00 | 0.00 | 55 | 1017.5 |
| 20260506180029 | 70 | 323 | 3.5 | 6.1 | 0.00 | 0.00 | 0.00 | 56 | 1017.4 |
| 20260506175018 | 71 | 282 | 3.5 | 6.1 | 0.00 | 0.00 | 0.00 | 56 | 1017.4 |
| 20260506174023 | 69 | 269 | 1.7 | 4.3 | 0.00 | 0.00 | 0.00 | 58 | 1017.4 |
| 20260506173025 | 70 | 291 | 3.5 | 6.1 | 0.00 | 0.00 | 0.00 | 56 | 1017.5 |
| 20260506172030 | 70 | 334 | 2.6 | 5.2 | 0.00 | 0.00 | 0.00 | 56 | 1017.5 |
| 20260506171040 | 70 | 310 | 2.6 | 6.1 | 0.00 | 0.00 | 0.00 | 55 | 1017.6 |
| 20260506170042 | 70 | 288 | 2.6 | 3.5 | 0.00 | 0.00 | 0.00 | 57 | 1017.6 |
| 20260506165027 | 70 | 267 | 1.7 | 3.5 | 0.00 | 0.00 | 0.00 | 58 | 1017.7 |
| 20260506164105 | 69 | 170 | 0.9 | 2.6 | 0.00 | 0.00 | 0.00 | 59 | 1017.7 |
| 20260506163018 | 68 | 270 | 0.9 | 2.6 | 0.00 | 0.00 | 0.00 | 62 | 1017.6 |
| 20260506162022 | 69 | 222 | 1.7 | 4.3 | 0.00 | 0.00 | 0.00 | 61 | 1017.6 |
| 20260506161021 | 68 | 0.0 | 0.0 | 0.00 | 0.00 | 0.00 | 63 | 1017.6 | |
| 20260506160040 | 65 | 113 | 0.0 | 1.7 | 0.00 | 0.00 | 0.00 | 69 | 1017.5 |
| 20260506155019 | 66 | 126 | 0.9 | 2.6 | 0.00 | 0.00 | 0.00 | 69 | 1017.6 |
| 20260506154017 | 64 | 282 | 0.9 | 2.6 | 0.00 | 0.00 | 0.00 | 72 | 1017.6 |
| 20260506153016 | 63 | 0.0 | 0.0 | 0.00 | 0.00 | 0.00 | 75 | 1017.5 | |
| 20260506152033 | 61 | 0.0 | 0.0 | 0.00 | 0.00 | 0.00 | 81 | 1017.5 | |
| 20260506151021 | 59 | 0.0 | 0.0 | 0.00 | 0.00 | 0.00 | 87 | 1017.6 | |
| 20260506150024 | 56 | 0.0 | 0.0 | 0.00 | 0.00 | 0.00 | 94 | 1017.7 | |
| 20260506145028 | 54 | 0.0 | 0.0 | 0.00 | 0.00 | 0.00 | 99 | 1017.6 | |
| 20260506144018 | 50 | 0.0 | 0.0 | 0.00 | 0.00 | 0.00 | 99 | 1017.6 | |
| 20260506143044 | 49 | 0.0 | 0.0 | 0.00 | 0.00 | 0.00 | 99 | 1017.6 | |
| 20260506142046 | 49 | 0.0 | 0.0 | 0.00 | 0.00 | 0.00 | 99 | 1017.6 | |
| 20260506141030 | 48 | 0.0 | 0.0 | 0.00 | 0.00 | 0.00 | 99 | 1017.5 | |
| 20260506140020 | 47 | 0.0 | 0.0 | 0.00 | 0.00 | 0.00 | 99 | 1017.4 | |
| 20260506135022 | 48 | 0.0 | 0.0 | 0.00 | 0.00 | 0.00 | 99 | 1017.3 | |
| 20260506134028 | 47 | 0.0 | 0.0 | 0.00 | 0.00 | 0.00 | 99 | 1017.3 | |
| 20260506133113 | 47 | 0.0 | 0.0 | 0.00 | 0.00 | 0.00 | 99 | 1017.1 | |
| 20260506132021 | 47 | 0.0 | 0.0 | 0.00 | 0.00 | 0.00 | 99 | 1017.0 | |
| 20260506131023 | 47 | 0.0 | 0.0 | 0.00 | 0.00 | 0.00 | 99 | 1016.8 | |
| 20260506130028 | 47 | 0.0 | 0.0 | 0.00 | 0.01 | 0.00 | 99 | 1016.8 | |
| 20260506125033 | 46 | 0.0 | 0.0 | 0.00 | 0.01 | 0.00 | 99 | 1016.7 | |
| 20260506124022 | 46 | 0.0 | 0.0 | 0.00 | 0.03 | 0.00 | 99 | 1016.7 | |
| 20260506123025 | 46 | 0.0 | 0.0 | 0.00 | 0.08 | 0.00 | 98 | 1016.5 | |
| 20260506122030 | 46 | 0.0 | 0.0 | 0.00 | 0.13 | 0.00 | 97 | 1016.6 | |
| 20260506121020 | 46 | 0.0 | 0.0 | 0.00 | 0.13 | 0.00 | 98 | 1016.5 | |
| 20260506120024 | 46 | 0.0 | 0.0 | 0.00 | 0.13 | 0.00 | 97 | 1016.5 | |
| 20260506115026 | 47 | 0.0 | 0.0 | 0.00 | 0.13 | 0.00 | 98 | 1016.5 | |
| 20260506114031 | 47 | 0.0 | 0.0 | 0.00 | 0.13 | 0.00 | 97 | 1016.5 | |
| 20260506113041 | 47 | 0.0 | 0.0 | 0.00 | 0.13 | 0.00 | 97 | 1016.5 | |
| 20260506112020 | 47 | 0.0 | 0.0 | 0.00 | 0.13 | 0.00 | 96 | 1016.5 | |
| 20260506111022 | 47 | 0.0 | 0.0 | 0.00 | 0.13 | 0.00 | 95 | 1016.5 | |
| 20260506110027 | 47 | 0.0 | 0.0 | 0.00 | 0.13 | 0.00 | 95 | 1016.5 | |
| 20260506105032 | 47 | 0.0 | 0.0 | 0.00 | 0.13 | 0.00 | 95 | 1016.4 | |
| 20260506104021 | 48 | 0.0 | 0.0 | 0.00 | 0.13 | 0.00 | 95 | 1016.4 | |
| 20260506103044 | 48 | 0.0 | 0.0 | 0.00 | 0.14 | 0.00 | 94 | 1016.4 | |
| 20260506102028 | 48 | 0.0 | 0.0 | 0.00 | 0.14 | 0.00 | 94 | 1016.5 | |
| 20260506101032 | 48 | 0.0 | 0.0 | 0.00 | 0.14 | 0.00 | 94 | 1016.4 | |
| 20260506100022 | 49 | 0.0 | 0.0 | 0.00 | 0.14 | 0.00 | 93 | 1016.4 | |
| 20260506095024 | 48 | 0.0 | 0.0 | 0.00 | 0.14 | 0.00 | 93 | 1016.4 | |
| 20260506094029 | 48 | 0.0 | 0.0 | 0.00 | 0.14 | 0.00 | 91 | 1016.4 | |
| 20260506093018 | 49 | 0.0 | 0.0 | 0.00 | 0.14 | 0.00 | 91 | 1016.4 | |
| 20260506092023 | 49 | 0.0 | 0.0 | 0.00 | 0.14 | 0.00 | 91 | 1016.6 | |
| 20260506091025 | 49 | 0.0 | 0.0 | 0.00 | 0.14 | 0.00 | 90 | 1016.6 | |
| 20260506090030 | 50 | 0.0 | 0.0 | 0.00 | 0.14 | 0.00 | 90 | 1016.7 | |
| 20260506085020 | 50 | 0.0 | 0.0 | 0.00 | 0.14 | 0.00 | 89 | 1016.7 | |
| 20260506084019 | 50 | 0.0 | 0.0 | 0.00 | 0.14 | 0.00 | 89 | 1016.7 | |
| 20260506083041 | 50 | 0.0 | 0.0 | 0.00 | 0.14 | 0.00 | 88 | 1016.7 | |
| 20260506082026 | 51 | 0.0 | 0.0 | 0.00 | 0.14 | 0.00 | 88 | 1016.7 | |
| 20260506081025 | 51 | 0.0 | 0.0 | 0.00 | 0.14 | 0.00 | 88 | 1016.8 | |
| 20260506073020 | 53 | 0.0 | 0.0 | 0.00 | 0.14 | 0.00 | 82 | 1016.9 | |
| 20260506072019 | 54 | 0.0 | 0.0 | 0.00 | 0.14 | 0.00 | 81 | 1016.9 | |
| 20260506071017 | 55 | 0.0 | 0.9 | 0.00 | 0.14 | 0.00 | 80 | 1016.8 | |
| 20260506062030 | 56 | 13 | 1.7 | 3.5 | 0.00 | 0.14 | 0.14 | 78 | 1016.4 |
| 20260506061019 | 57 | 0.0 | 0.0 | 0.00 | 0.14 | 0.14 | 78 | 1016.4 | |
| 20260506051020 | 57 | 0.0 | 0.0 | 0.00 | 0.14 | 0.14 | 76 | 1015.9 | |
| 20260506045026 | 56 | 0.0 | 0.0 | 0.00 | 0.14 | 0.14 | 75 | 1015.6 | |
| 20260506044031 | 57 | 0.0 | 0.0 | 0.00 | 0.14 | 0.14 | 74 | 1015.5 | |
| 20260506043020 | 57 | 0.0 | 0.0 | 0.00 | 0.14 | 0.14 | 73 | 1015.3 | |
| 20260506042022 | 58 | 0.0 | 0.0 | 0.00 | 0.14 | 0.14 | 71 | 1015.2 |